CAPE
0 0 0 0 0 0 0 0 0 0 0 0 0 0 0 0 0 0 0 0 0 0 0 0 0 0 0 0 0 0 0 0 0 0 0 0 0 90 101 21 11 4 0 3 0 1 1
0 0 0 0 0 0 0 0 0 0 0 0 0 0 0 0 0 0 0 0 0 0 0 0 0 0 0 0 0 0 0 0 0 0 0 0 51 92 36 32 26 4 5 1 0 0 0
0 3 0 0 0 0 0 0 0 0 0 0 0 0 0 0 0 0 0 0 0 0 0 0 0 0 0 0 0 0 0 0 0 0 0 0 49 17 1 0 0 0 0 0 0 0 0
0 0 0 0 0 0 0 0 0 0 0 0 0 0 0 0 0 0 0 0 0 0 0 0 0 0 0 0 0 0 0 0 0 0 18 11 10 7 16 0 0 0 0 0 0 0 0
0 0 1 1 0 0 0 0 0 0 0 0 0 0 0 0 0 0 0 0 0 0 0 0 0 0 0 0 0 0 0 0 0 0 0 0 13 15 0 0 4 4 18 7 0 0 0
0 0 0 0 0 0 0 0 0 0 0 0 0 0 0 0 0 0 0 0 0 0 0 0 0 0 0 0 0 0 0 0 0 0 0 0 0 0 0 0 10 6 0 0 1 0 0
11 2 0 0 0 0 0 0 0 0 0 0 0 0 0 0 0 0 0 0 0 0 0 0 0 0 0 0 0 0 0 0 0 0 0 0 0 0 0 0 1 0 0 0 0 0 0
0 5 0 0 0 0 0 0 0 0 0 0 0 0 0 0 0 0 0 0 0 0 0 0 0 0 0 0 0 0 0 0 0 0 0 0 0 0 0 0 0 0 0 0 0 0 0
0 0 0 0 0 0 0 0 0 0 0 0 0 0 0 0 0 0 0 0 0 0 0 0 0 0 0 0 0 0 0 0 0 0 0 0 23 0 0 0 0 0 0 0 0 0 0
0 0 0 0 0 0 0 0 0 0 0 0 0 0 0 0 0 12 0 0 0 0 0 0 0 0 0 0 0 0 0 0 0 0 0 0 0 0 0 0 0 0 0 0 0 0 0
4 0 0 0 0 0 0 0 0 0 0 0 0 0 0 0 0 50 0 0 0 0 0 0 0 0 0 0 0 0 0 0 0 0 0 0 0 0 0 0 0 0 0 0 0 0 0
1 0 0 0 0 0 0 0 0 0 0 0 0 0 0 0 0 0 0 0 0 0 0 0 0 0 0 0 0 0 0 0 0 0 0 0 0 0 0 0 0 0 0 0 0 0 0
2 0 0 0 0 0 0 0 0 0 0 0 0 0 0 0 1 0 0 0 0 0 0 0 0 0 0 0 0 0 0 0 0 0 0 0 0 0 0 0 0 0 0 0 0 0 0
2 0 0 0 0 0 0 0 0 0 0 0 0 0 0 0 0 0 12 0 0 0 0 0 0 0 0 0 0 0 0 0 0 0 0 0 0 0 0 0 0 0 0 0 0 0 0
6 0 0 0 0 0 0 0 0 0 0 0 0 0 0 0 0 1 65 0 0 0 0 0 0 0 0 0 0 0 0 0 0 0 0 0 0 0 0 0 0 0 0 0 0 0 0
0 0 0 0 0 0 0 0 0 0 0 0 0 0 0 1 8 26 8 7 2 0 0 0 0 0 0 0 0 0 0 0 0 0 0 0 0 0 0 0 0 0 0 0 0 0 0
0 0 0 0 0 0 0 0 0 0 0 0 0 0 7 13 2 60 1 14 16 0 0 0 0 0 0 0 0 0 0 0 0 0 0 0 0 0 0 0 0 0 0 0 0 0 0
0 0 0 0 0 0 0 0 0 0 0 0 0 0 14 0 5 4 7 7 2 24 0 0 0 0 0 0 0 0 0 0 0 0 0 0 0 0 0 0 0 0 0 0 0 0 0
0 0 0 0 0 0 0 0 0 0 0 0 0 0 30 27 0 0 8 0 14 0 1 0 0 0 0 0 0 0 0 0 0 0 0 0 0 0 0 0 0 0 0 0 0 0 0
0 0 0 0 0 0 0 0 0 0 0 0 0 0 4 23 11 13 9 6 14 0 1 0 0 0 0 0 0 0 0 0 0 0 0 0 0 0 0 0 0 0 0 0 0 0 0
0 0 0 0 0 0 0 0 0 0 0 2 0 0 13 0 6 7 14 22 28 9 0 2 0 0 0 0 0 0 0 0 0 0 0 0 0 0 0 0 0 0 0 0 0 0 0
0 0 0 0 0 0 0 0 0 0 0 10 4 5 8 4 9 7 16 1 28 35 5 5 1 0 0 0 0 0 0 0 0 0 0 0 0 0 0 0 0 0 0 0 0 0 0
0 0 0 0 0 0 0 0 0 0 0 21 8 10 8 1 5 12 5 9 10 40 45 33 4 0 0 0 0 0 0 0 0 0 0 0 0 0 0 0 0 0 0 0 0 0 0
0 0 0 0 0 0 0 0 0 0 0 15 14 13 15 0 0 5 33 15 23 5 4 37 22 19 0 0 0 0 0 0 0 0 0 0 0 0 0 0 0 0 0 0 0 0 0
0 0 3 0 0 12 2 0 0 0 0 5 10 24 23 6 0 2 10 24 21 20 4 40 9 2 0 0 0 6 0 0 0 0 0 0 0 0 0 0 0 0 0 0 0 0 0
0 0 0 0 0 19 12 5 0 0 0 0 9 19 24 16 0 0 8 4 10 0 31 28 7 0 0 0 1 2 0 0 0 0 0 0 0 0 0 0 0 0 0 0 0 0 0
0 0 0 0 0 1 10 9 6 1 0 0 9 19 30 19 4 1 7 1 0 0 1 50 37 3 0 0 0 0 0 0 0 0 0 0 0 0 0 0 0 0 0 0 0 0 0
0 0 2 0 0 0 0 4 0 0 0 1 1 20 33 13 8 7 12 6 5 3 0 6 13 5 2 1 2 0 0 0 0 0 0 0 0 0 0 0 0 0 0 0 0 0 0
0 0 0 0 0 2 0 2 1 0 0 0 1 19 35 19 10 16 16 5 0 3 0 1 1 14 5 0 1 1 1 3 0 0 0 0 0 0 0 0 0 0 0 0 0 0 0
CIN
0 0 0 0 0 0 0 0 0 0 0 0 0 0 0 0 0 0 0 0 0 0 0 0 0 0 0 0 0 0 0 0 0 0 0 0 0 -4 -5 -27 -47 -71 -10 -160 0 -161 -106
0 0 0 0 0 0 0 0 0 0 0 0 0 0 0 0 0 0 0 0 0 0 0 0 0 0 0 0 0 0 0 0 0 0 0 0 -4 -3 -10 -25 -25 -131 -161 -123 0 0 0
0 0 0 0 0 0 0 0 0 0 0 0 0 0 0 0 0 0 0 0 0 0 0 0 0 0 0 0 0 0 0 0 0 0 0 0 -4 -28 -4 0 -2 0 0 0 0 0 0
0 0 0 0 0 0 0 0 0 0 0 0 0 0 0 0 0 0 0 0 0 0 0 0 0 0 0 0 0 0 0 0 0 0 -54 -84 -70 -36 -53 0 0 0 0 0 0 0 0
0 0 0 0 0 0 0 0 0 0 0 0 0 0 0 0 0 0 0 0 0 0 0 0 0 0 0 0 0 0 0 0 0 0 0 0 -101 -86 0 0 -95 -38 -15 -14 -20 0 0
0 0 0 0 0 0 0 0 0 0 0 0 0 0 0 0 0 0 0 0 0 0 0 0 0 0 0 0 0 0 0 0 0 0 0 0 0 0 0 0 -9 -15 -1 0 -30 0 0
0 0 0 0 0 0 0 0 0 0 0 0 0 0 0 0 0 0 0 0 0 0 0 0 0 0 0 0 0 0 0 0 0 0 0 0 0 0 0 0 -11 0 0 0 0 0 0
0 0 0 0 0 0 0 0 0 0 0 0 0 0 0 0 0 0 0 0 0 0 0 0 0 0 0 0 0 0 0 0 0 0 0 0 0 0 0 0 0 0 0 0 0 0 0
0 0 0 0 0 0 0 0 0 0 0 0 0 0 0 0 0 0 0 0 0 0 0 0 0 0 0 0 0 0 0 0 0 0 0 0 -8 -1 0 0 0 0 0 0 0 0 0
0 0 0 0 0 0 0 0 0 0 0 0 0 0 0 0 0 -46 0 0 0 0 0 0 0 0 0 0 0 0 0 0 0 0 0 0 0 0 0 0 0 0 0 0 0 0 0
-7 0 0 0 0 0 0 0 0 0 0 0 0 0 0 0 0 -13 0 0 0 0 0 0 0 0 0 0 0 0 0 0 0 0 0 0 0 0 0 0 0 0 0 0 0 0 0
-11 0 0 0 0 0 0 0 0 0 0 0 0 0 0 0 0 0 0 0 0 0 0 0 0 0 0 0 0 0 0 0 0 0 0 0 0 0 0 0 0 0 0 0 0 0 0
-5 0 0 0 0 0 0 0 0 0 0 0 0 0 0 0 0 0 0 0 0 0 0 0 0 0 0 0 0 0 0 0 0 0 0 0 0 0 0 0 0 0 0 0 0 0 0
-1 0 0 0 0 0 0 0 0 0 0 0 0 0 0 0 0 0 -60 0 0 0 0 0 0 0 0 0 0 0 0 0 0 0 0 0 0 0 0 0 0 0 0 0 0 0 0
-2 0 0 0 0 0 0 0 0 0 0 0 0 0 0 0 0 -1 -2 0 0 0 0 0 0 0 0 0 0 0 0 0 0 0 0 0 0 0 0 0 0 0 0 0 0 0 0
0 0 0 0 0 0 0 0 0 0 0 0 0 0 0 -1 0 -2 -3 -3 -1 0 0 0 0 0 0 0 0 0 0 0 0 0 0 0 0 0 0 0 0 0 0 0 0 0 0
0 0 0 0 0 0 0 0 0 0 0 0 0 0 -1 0 -1 0 0 -1 -3 0 0 0 0 0 0 0 0 0 0 0 0 0 0 0 0 0 0 0 0 0 0 0 0 0 0
0 0 0 0 0 0 0 0 0 0 0 0 0 0 0 0 0 -2 0 -4 -16 -2 0 0 0 0 0 0 0 0 0 0 0 0 0 0 0 0 0 0 0 0 0 0 0 0 0
0 0 0 0 0 0 0 0 0 0 0 0 0 0 0 0 0 0 -2 -1 -1 0 -1 0 0 0 0 0 0 0 0 0 0 0 0 0 0 0 0 0 0 0 0 0 0 0 0
0 0 0 0 0 0 0 0 0 0 0 0 0 0 -1 -1 -1 -1 -3 -2 -2 -1 -2 0 0 0 0 0 0 0 0 0 0 0 0 0 0 0 0 0 0 0 0 0 0 0 0
0 0 0 0 0 0 0 0 0 0 0 -1 0 0 -1 0 0 -1 -1 -4 -3 -2 0 -1 0 0 0 0 0 0 0 0 0 0 0 0 0 0 0 0 0 0 0 0 0 0 0
0 0 0 0 0 0 0 0 0 0 0 -1 -2 0 -2 -1 -1 -1 -1 -1 -4 -4 -4 -2 -2 0 0 0 0 0 0 0 0 0 0 0 0 0 0 0 0 0 0 0 0 0 0
0 0 -6 0 0 0 0 0 0 0 0 0 -2 -2 0 0 -1 -2 -3 -2 -7 -7 -4 -3 0 -1 0 0 0 0 0 0 0 0 0 0 0 0 0 0 0 0 0 0 0 0 0
0 0 -13 0 0 0 0 0 0 0 0 -1 -1 -2 0 -1 0 -2 -1 -5 -3 -5 -16 -2 -1 -2 0 0 0 0 0 0 0 0 0 0 0 0 0 0 0 0 0 0 0 0 0
0 0 -23 -6 -12 -3 -10 0 0 0 0 -1 -1 -1 0 0 -3 -1 -1 -3 -2 -2 -14 -4 -23 -10 0 0 0 -1 0 0 0 0 0 0 0 0 0 0 0 0 0 0 0 0 0
0 0 0 -17 0 -2 -2 -7 -1 0 0 0 -2 -1 0 0 0 0 -1 0 -2 -1 -9 -5 -27 0 0 0 -1 -3 0 0 0 0 0 0 0 0 0 0 0 0 0 0 0 0 0
0 0 0 0 0 -1 -4 -4 -5 -7 0 0 -1 0 0 0 -2 -2 0 0 0 0 -2 -3 -3 -6 0 0 0 0 0 0 0 0 0 0 0 0 0 0 0 0 0 0 0 0 0
0 0 -2 0 0 -3 0 -4 0 -2 0 -1 -2 -3 0 0 -2 -2 -1 -1 0 0 0 -4 -12 -2 0 0 0 -1 0 0 0 0 0 0 0 0 0 0 0 0 0 0 0 0 0
0 0 -1 0 0 -12 0 -5 -6 0 0 0 -2 -1 -2 0 0 -2 -2 -4 -1 -1 0 0 -1 -4 -11 0 -1 -1 -1 -2 0 0 0 0 0 0 0 0 0 0 0 0 0 0 0
Wind_Speed
23 24 24 25 25 26 26 27 28 28 28 29 29 29 29 29 29 29 30 31 30 29 27 25 23 21 14 12 14 14 16 13 8 5 4 6 9 15 8 16 13 12 12 11 12 12 11
23 24 25 25 26 26 27 27 28 28 28 29 30 30 31 31 31 31 30 29 30 29 26 24 22 20 14 21 17 19 15 9 6 6 6 7 9 18 14 14 20 11 10 10 10 11 11
23 23 24 25 26 27 27 28 28 28 29 30 30 31 31 32 32 32 32 30 30 28 24 23 21 18 17 16 16 18 9 9 9 5 9 15 19 7 10 12 11 9 9 10 9 9 10
23 23 24 24 25 26 27 28 29 29 30 30 31 32 32 33 33 33 33 31 29 25 23 21 21 19 17 14 16 13 7 10 10 10 12 12 15 13 9 9 9 8 7 8 7 8 9
22 23 23 24 25 26 27 28 29 30 30 31 32 32 33 33 34 34 33 32 27 23 21 20 17 16 16 12 12 10 10 6 7 8 8 9 12 11 6 5 6 5 6 4 7 5 8
23 23 23 24 25 26 27 28 29 30 31 32 32 33 33 33 34 34 33 30 24 21 17 16 18 15 16 13 12 9 8 5 7 6 8 9 10 6 2 2 6 4 2 8 7 1 2
24 24 24 25 25 26 27 28 29 30 30 31 32 33 33 33 33 32 30 24 19 14 17 17 15 17 16 15 12 10 11 9 5 10 15 12 15 11 4 2 26 24 14 8 12 7 7
24 24 25 25 26 27 27 28 29 29 30 31 32 32 33 33 32 29 24 17 17 19 21 17 17 17 15 15 10 13 13 12 14 19 14 16 19 19 15 14 22 17 12 11 10 12 9
23 23 25 25 26 27 28 29 29 29 30 31 32 32 32 33 31 23 18 18 21 19 21 15 14 14 11 6 2 5 16 16 18 21 19 18 20 11 12 12 11 15 15 12 16 12 14
22 23 23 24 25 27 28 29 30 30 31 31 32 32 32 32 24 21 18 21 20 18 23 16 15 14 9 7 8 10 13 16 19 21 22 21 16 16 13 12 15 16 16 21 13 13 21
22 22 23 24 25 27 28 29 30 30 31 32 32 32 31 27 26 21 20 22 19 17 28 18 11 14 7 2 9 5 11 13 15 15 17 20 18 11 9 10 17 17 20 17 17 20 27
20 21 23 24 25 26 28 29 30 31 31 32 32 32 31 21 24 22 22 22 17 22 29 19 15 12 8 5 9 9 5 12 14 15 18 19 17 13 7 15 19 18 18 17 20 23 21
21 22 24 25 26 26 28 29 31 31 32 33 33 33 30 26 21 22 23 19 23 28 21 20 19 13 10 9 5 5 4 4 4 11 16 17 17 13 13 15 12 12 15 18 16 10 15
23 23 24 26 27 27 28 29 31 32 32 33 35 34 26 25 22 23 22 24 30 26 24 19 18 16 15 12 9 8 8 5 12 8 8 12 18 10 8 13 17 10 5 14 21 22 13
23 24 26 26 27 28 28 29 31 32 32 33 35 27 26 21 20 20 25 33 30 26 24 21 17 19 17 13 18 13 10 6 4 7 3 3 11 11 13 13 15 11 13 16 22 17 22
22 24 24 26 27 27 28 29 30 31 31 31 30 28 25 20 20 22 31 40 32 27 21 23 23 19 20 17 16 14 13 16 13 4 7 7 9 11 12 12 15 18 16 17 15 22 24
21 21 22 23 24 26 28 29 30 30 31 30 26 28 21 18 19 26 41 38 33 28 26 24 25 22 21 17 17 16 17 16 13 8 6 2 5 9 10 10 12 14 16 18 20 17 22
20 20 21 22 22 25 26 27 29 28 29 27 26 31 20 17 28 33 41 36 34 34 28 27 25 25 24 21 22 22 20 20 12 10 8 4 9 4 6 13 17 20 17 15 21 20 20
22 21 20 19 20 23 25 27 27 26 25 25 28 29 19 20 35 38 35 37 35 38 33 28 28 26 22 23 23 22 21 15 13 11 14 5 9 10 11 12 11 12 15 22 24 24 17
20 18 18 19 21 22 24 25 25 25 23 23 27 31 26 25 33 34 38 38 40 33 35 31 28 26 25 25 23 20 20 18 17 15 16 14 12 4 13 21 13 13 11 19 21 22 23
20 19 19 19 20 21 24 24 24 23 23 22 25 31 27 32 36 37 35 35 42 40 35 30 33 31 27 27 26 25 24 19 19 17 16 16 18 11 14 13 14 14 11 7 9 13 17
16 18 20 19 20 21 23 23 23 23 22 25 28 29 27 34 30 35 38 38 40 38 37 41 40 31 29 31 26 25 27 24 22 18 17 18 21 14 14 9 13 14 13 11 6 10 12
16 16 17 18 20 22 22 23 22 22 21 24 25 23 27 32 34 35 37 40 35 37 36 32 34 36 33 29 29 29 26 21 23 18 19 19 20 16 18 12 17 21 5 6 6 5 20
13 14 14 16 18 21 22 22 21 22 23 25 24 26 30 38 34 35 32 32 40 39 37 31 29 34 32 26 29 28 25 23 21 21 20 21 19 16 19 16 23 18 17 21 24 26 7
12 11 13 13 17 19 20 22 22 22 23 26 26 25 28 37 34 35 34 34 33 33 43 38 24 23 23 24 28 28 26 24 24 22 22 23 20 22 20 19 22 31 8 13 16 24 5
13 9 10 13 15 18 21 22 22 22 23 27 27 26 26 32 37 35 33 33 34 36 35 33 21 20 21 25 27 33 33 27 27 23 22 23 26 23 20 22 22 19 14 15 16 25 8
12 11 10 13 15 18 21 23 22 22 24 26 27 26 27 33 35 29 30 29 27 28 32 33 28 27 24 29 32 33 38 28 30 27 24 25 26 29 25 24 23 19 11 14 19 15 8
12 11 10 12 14 18 20 22 23 24 25 27 30 28 28 32 34 30 28 34 28 28 30 25 25 27 29 32 35 30 35 36 32 26 25 24 27 28 29 27 27 13 10 15 14 9 8
10 10 10 10 15 19 21 23 24 24 25 26 31 28 28 32 30 28 33 35 36 31 30 26 29 27 28 31 33 32 29 30 33 34 24 29 27 28 25 25 20 7 18 10 9 7 6
Wind_Direction
319 320 321 320 320 320 320 320 317 318 316 316 315 312 310 308 305 301 302 305 298 294 288 286 286 289 309 298 318 316 295 299 301 303 345 7 104 163 53 335 357 350 356 1 16 24 35
320 318 317 317 316 316 317 317 316 315 315 313 311 310 310 307 304 303 298 295 295 290 283 283 286 290 299 276 302 292 294 322 330 292 305 325 290 298 335 348 309 354 9 22 13 26 32
324 322 321 318 315 314 314 314 314 312 311 311 308 306 307 305 303 301 299 294 292 283 282 276 280 289 291 296 309 300 314 319 312 321 307 294 290 345 350 3 15 34 28 23 20 47 44
323 321 320 320 319 317 314 311 311 310 310 308 307 305 303 304 302 299 296 294 286 277 281 280 278 275 292 306 304 312 339 314 310 309 306 307 303 312 334 6 35 48 26 5 33 48 30
319 321 321 321 319 317 315 313 309 308 307 306 305 304 302 302 302 297 294 291 281 281 284 284 284 284 289 304 311 319 307 355 351 345 353 338 321 323 353 61 41 93 23 32 2 86 39
309 315 319 319 319 318 316 315 313 309 306 305 303 303 301 300 301 298 294 284 284 287 297 293 280 289 289 289 300 309 318 349 344 17 353 336 334 345 36 110 344 0 134 332 346 10 27
307 308 312 316 318 316 316 314 315 313 309 306 303 301 299 299 299 299 300 301 302 310 295 292 298 289 292 290 295 288 296 304 326 311 299 313 300 298 303 242 288 292 314 333 321 5 321
305 307 308 312 313 314 313 313 312 314 312 308 305 300 297 294 298 296 301 309 311 299 288 291 292 289 294 293 295 276 286 280 283 279 302 301 294 295 300 303 291 302 317 323 330 332 330
306 308 307 308 311 310 311 310 309 311 312 310 307 301 296 291 291 298 311 309 302 303 288 294 288 294 303 309 342 278 274 276 279 278 287 292 311 316 301 307 318 306 309 320 313 322 320
304 307 309 310 311 308 307 309 308 309 309 310 307 304 296 290 288 299 297 303 303 302 280 286 286 288 296 303 297 303 283 279 279 280 282 286 297 296 294 301 303 310 310 301 320 325 322
306 306 307 308 308 308 304 305 306 306 308 308 306 304 297 287 280 285 296 300 301 296 269 285 286 300 295 246 321 279 290 286 287 287 288 289 296 290 284 301 303 312 304 309 308 302 296
303 305 305 306 307 307 306 302 304 304 304 304 302 301 298 287 278 285 293 293 292 270 265 281 289 280 275 226 296 310 286 291 297 287 288 293 302 297 283 298 293 302 307 313 303 298 309
296 298 300 301 302 305 304 301 299 302 300 300 298 294 289 282 271 288 290 279 266 259 275 273 279 282 265 278 269 272 259 226 243 284 283 294 291 309 304 291 311 304 306 310 318 317 320
291 295 297 297 297 299 301 300 297 298 300 297 296 289 289 277 280 282 272 258 256 266 262 281 277 278 269 275 272 275 280 227 181 182 313 285 286 289 308 295 302 292 294 303 304 308 334
288 289 292 294 295 295 296 297 294 295 298 299 296 289 282 282 274 273 255 249 255 262 267 269 276 268 266 272 281 276 271 255 230 187 222 305 294 311 305 299 299 307 296 308 300 314 307
286 287 290 291 290 292 291 293 294 293 296 300 290 284 275 283 272 260 251 247 253 261 269 264 262 267 264 265 271 277 279 287 283 267 183 319 313 312 312 308 297 292 305 300 305 300 303
285 289 293 295 295 294 291 288 291 291 292 294 285 273 277 278 265 252 246 248 251 259 261 263 261 267 268 271 269 274 286 293 282 290 289 230 299 330 322 300 296 300 289 294 299 303 303
280 284 291 295 297 294 293 291 289 290 291 285 275 263 281 272 249 250 248 248 254 251 257 259 264 265 268 269 270 271 277 283 299 296 287 269 312 263 321 320 306 300 295 290 290 296 299
275 281 288 295 298 296 293 290 289 290 292 283 266 265 284 261 249 248 251 248 251 248 249 255 258 260 267 268 271 268 279 293 295 291 293 292 304 305 317 324 320 306 296 289 288 292 297
273 277 283 288 290 290 290 289 287 287 289 281 268 260 262 259 255 253 248 248 247 251 250 250 256 261 261 263 269 279 273 284 284 285 293 294 300 278 309 314 333 321 304 291 285 290 296
271 272 276 280 283 287 282 284 286 285 283 278 264 257 262 255 250 249 252 252 246 244 247 251 251 253 258 260 263 265 274 278 278 279 284 284 292 302 313 324 325 331 326 310 289 290 297
271 269 270 274 277 280 279 281 283 281 279 269 262 260 264 257 258 248 248 250 249 247 248 246 248 249 256 256 264 269 268 268 271 270 270 280 287 304 311 326 323 318 321 317 289 299 296
272 271 268 269 272 273 275 275 277 275 272 269 270 272 265 255 252 251 247 247 251 252 248 254 250 246 251 256 269 272 278 272 272 271 264 271 278 296 303 324 319 310 273 230 244 266 304
268 272 269 266 268 269 270 271 274 273 266 269 271 270 259 251 253 249 253 256 248 248 250 251 254 246 250 268 273 268 269 271 271 271 268 268 273 289 298 313 303 322 326 311 298 259 325
266 271 272 267 267 267 267 268 268 271 268 264 266 267 261 251 256 255 255 255 254 255 248 250 256 255 259 257 260 256 258 261 263 268 265 266 269 281 290 295 305 275 338 333 324 273 135
264 263 268 268 267 266 265 264 265 266 267 263 263 266 266 257 251 256 257 254 252 251 251 246 258 261 261 249 248 249 249 256 258 263 266 265 264 272 287 291 295 314 322 327 321 292 14
260 260 260 268 265 265 264 262 262 262 263 261 261 261 264 257 255 261 253 256 259 255 253 249 248 253 254 246 242 248 248 257 254 256 260 257 260 263 272 283 293 302 324 323 311 326 30
259 265 260 263 264 264 263 261 261 260 260 259 258 260 258 260 261 261 260 251 256 256 249 256 248 250 245 243 243 250 252 250 253 260 256 256 258 262 266 276 281 299 314 306 328 18 46
256 264 262 261 264 264 262 261 259 257 258 258 257 258 262 261 262 269 262 259 257 259 252 256 253 254 246 245 249 248 251 253 250 254 259 258 260 263 265 276 287 292 299 315 338 17 33